Location: Croydon
(51.3762°N, 0.0982°W)
Time: 17:55:56
(UTC+01:00)

XW-2D - Visible Passes

Search period start: 16 October 2019 00:00
Search period end: 26 October 2019 00:00
Orbit: 507 x 528 km, 97.5° (Epoch: 16 October)

Date Brightness Start Highest point End Pass type
(mag) Time Alt. Az. Time Alt. Az. Time Alt. Az.
17 Oct ? 19:18:42 10° WSW 19:20:43 14° W 19:22:43 10° WNW visible
18 Oct ? 06:43:10 10° NNE 06:46:45 42° E 06:50:17 10° S visible
18 Oct ? 19:03:42 10° SW 19:06:26 19° W 19:09:11 10° NW visible
19 Oct ? 06:29:12 10° NNE 06:32:32 30° E 06:35:51 10° SSE visible
19 Oct ? 18:49:00 10° SSW 18:52:11 26° W 18:55:23 10° NW visible
20 Oct ? 06:15:20 10° NE 06:18:18 22° E 06:21:14 10° SE visible
20 Oct ? 18:34:28 10° SSW 18:37:58 35° W 18:41:28 10° NNW visible
21 Oct ? 06:01:40 10° NE 06:04:02 16° E 06:06:23 10° SE visible
22 Oct ? 05:48:25 10° ENE 05:49:44 12° E 05:51:02 10° ESE visible
23 Oct ? 19:29:00 10° WSW 19:30:05 11° W 19:31:11 10° WNW visible
24 Oct ? 06:52:21 10° NNE 06:56:02 53° E 06:59:41 10° S visible
24 Oct ? 19:13:31 10° SW 19:15:47 15° W 19:18:04 10° NW visible
25 Oct ? 06:38:19 10° NNE 06:41:50 37° E 06:45:19 10° SSE visible
25 Oct ? 18:58:37 10° SW 19:01:31 21° W 19:04:25 10° NW visible
